Location: Carella
(45.8167°N, 9.2667°E)
Time: 07:07:56
(UTC+00:00)

Cosmos 304 Rocket - Pass Details

Date: 30 March 2020
Orbit: 679 x 687 km, 74.0° (Epoch: 01 June)

Event Time Altitude Azimuth Distance (km) Brightness Sun altitude
Rises 18:43:33 0° 335° (NNW) 3,049 7.8 -10.1°
Reaches altitude 10° 18:45:52 10° 333° (NNW) 2,129 7.0 -10.5°
Maximum altitude 18:50:36 65° 252° (WSW) 749 4.2 -11.3°
Drops below altitude 10° 18:55:19 10° 171° (S) 2,113 6.0 -12.0°
Sets 18:57:37 0° 169° (SSE) 3,024 6.8 -12.4°
